Voreifelwetter - Wetterstation Drove - Standort 5043'47" - 0630'49"
Wetterdaten: aktuell Samstag, 23.03.2019 07:15
Datum Zeit Temp. A. Feuchte A. Luftdruck Regen Wind Richtung Richtung Sonnenschein Helligkeit Taupunkt Windchill
23.03.2019 07:15 6,3 C 94 % 1028,3 hPa 0,0 mm 5,4 km/h (1 Bft) NW22.5 315 0 min 663 lux 5,4 C 6,3 C
23.03.2019 07:00 6,3 C 93 % 1027,3 hPa 0,0 mm 8,7 km/h (2 Bft) NW22.5 320 0 min 444 lux 5,3 C 4,4 C
23.03.2019 06:45 6,4 C 93 % 1027,3 hPa 0,0 mm 1,0 km/h (0 Bft) NW22.5 320 0 min 211 lux 5,4 C 6,4 C
23.03.2019 06:30 6,3 C 93 % 1027,3 hPa 0,0 mm 4,9 km/h (1 Bft) NW22.5 320 0 min 54 lux 5,3 C 6,3 C
23.03.2019 06:16 6,1 C 93 % 1027,3 hPa 0,0 mm 7,5 km/h (2 Bft) NW22.5 325 0 min 0 lux 5,1 C 5,2 C
23.03.2019 06:00 6,1 C 93 % 1027,3 hPa 0,0 mm 12,6 km/h (3 Bft) NW22.5 320 0 min 0 lux 5,1 C 1,7 C
23.03.2019 05:45 6,0 C 93 % 1027,3 hPa 0,0 mm 6,8 km/h (2 Bft) N-NW22.5 330 0 min 0 lux 5,0 C 5,7 C
23.03.2019 05:30 6,0 C 93 % 1027,3 hPa 0,0 mm 12,6 km/h (3 Bft) NW22.5 320 0 min 0 lux 5,0 C 1,6 C
23.03.2019 05:15 6,0 C 92 % 1027,3 hPa 0,0 mm 13,0 km/h (3 Bft) NW22.5 320 0 min 0 lux 4,8 C 1,3 C
23.03.2019 05:00 6,1 C 92 % 1026,3 hPa 0,0 mm 13,1 km/h (3 Bft) NW22.5 325 0 min 0 lux 4,9 C 1,4 C
23.03.2019 04:45 6,1 C 92 % 1026,3 hPa 0,0 mm 12,0 km/h (2 Bft) N-NW45 335 0 min 0 lux 4,9 C 2,0 C
23.03.2019 04:30 6,2 C 92 % 1026,3 hPa 0,0 mm 15,8 km/h (3 Bft) N67.5 350 0 min 0 lux 5,0 C 0,1 C
23.03.2019 04:15 6,1 C 91 % 1026,3 hPa 0,0 mm 18,9 km/h (3 Bft) N-NW67.5 330 0 min 0 lux 4,7 C -1,3 C
23.03.2019 04:00 5,6 C 89 % 1026,4 hPa 0,0 mm 12,3 km/h (3 Bft) N-NW45 340 0 min 0 lux 3,9 C 1,3 C
23.03.2019 03:45 4,0 C 83 % 1026,5 hPa 0,0 mm 3,9 km/h (1 Bft) N-NW45 335 0 min 0 lux 1,4 C 4,0 C
23.03.2019 03:30 3,9 C 80 % 1026,5 hPa 0,0 mm 0,0 km/h (0 Bft) S 190 0 min 0 lux 0,8 C 3,9 C
23.03.2019 03:15 4,3 C 79 % 1026,5 hPa 0,0 mm 0,0 km/h (0 Bft) S 190 0 min 0 lux 1,0 C 4,3 C
23.03.2019 03:00 4,5 C 79 % 1026,4 hPa 0,0 mm 0,0 km/h (0 Bft) S 190 0 min 0 lux 1,2 C 4,5 C
23.03.2019 02:45 4,8 C 77 % 1026,4 hPa 0,0 mm 0,0 km/h (0 Bft) S 190 0 min 0 lux 1,1 C 4,8 C
23.03.2019 02:30 5,2 C 77 % 1026,4 hPa 0,0 mm 0,3 km/h (0 Bft) S-SW22.5 200 0 min 0 lux 1,5 C 5,2 C
23.03.2019 02:15 5,8 C 75 % 1026,3 hPa 0,0 mm 0,0 km/h (0 Bft) SO 135 0 min 0 lux 1,7 C 5,8 C
23.03.2019 02:00 6,4 C 72 % 1025,3 hPa 0,0 mm 0,0 km/h (0 Bft) SO 135 0 min 0 lux 1,7 C 6,4 C
23.03.2019 01:45 7,2 C 71 % 1025,2 hPa 0,0 mm 0,0 km/h (0 Bft) SO 135 0 min 0 lux 2,3 C 7,2 C
23.03.2019 01:30 8,2 C 69 % 1025,1 hPa 0,0 mm 4,3 km/h (1 Bft) SO67.5 125 0 min 0 lux 2,9 C 8,2 C
23.03.2019 01:15 8,6 C 68 % 1025,1 hPa 0,0 mm 8,3 km/h (2 Bft) NW22.5 320 0 min 0 lux 3,0 C 7,2 C
23.03.2019 01:00 8,8 C 70 % 1025,1 hPa 0,0 mm 9,3 km/h (2 Bft) NW22.5 315 0 min 0 lux 3,6 C 6,7 C
23.03.2019 00:45 8,9 C 67 % 1025,1 hPa 0,0 mm 9,0 km/h (2 Bft) NW45 305 0 min 0 lux 3,1 C 7,0 C
23.03.2019 00:30 10,0 C 63 % 1026,0 hPa 0,0 mm 5,6 km/h (1 Bft) N-NW22.5 345 0 min 0 lux 3,3 C 10,0 C
23.03.2019 00:15 11,0 C 62 % 1024,9 hPa 0,0 mm 10,3 km/h (2 Bft) NW22.5 320 0 min 0 lux 4,0 C 8,5 C
23.03.2019 00:00 11,2 C 62 % 1024,9 hPa 0,0 mm 12,3 km/h (3 Bft) NW45 310 0 min 0 lux 4,2 C 7,8 C
_ Min-Zeit 03:30 00:00 00:00 - 01:45 - - - - 03:30 04:15
Minimum _ 3,9 C 62 % 1024,9 hPa - 0,0 km/h (0 Bft) - - - - 0,8 C -1,3 C
_ Max-Zeit 00:00 07:15 07:15 00:00 04:15 - - 00:00 07:15 07:15 00:30
Maximum _ 11,2 C 94 % 1028,3 hPa 0,0 mm 18,9 km/h
N-NW (3 Bft)
- - 0 min 0,663 klux 5,4 C 10,0 C
Durchschnitt _ 6,6 C 82 % 1026,3 hPa #0,0 mm 6,9 km/h (2 Bft) NW - #0 min. 0,046 klux 3,5 C 4,8 C